* Astronomy

Members Login
Username 
 
Password 
    Remember Me  
Post Info TOPIC: Asteroid 2011 DV10


L

Posts: 131433
Date:
Asteroid 2011 DV10
Permalink  
 


Orbital elements:
2011 DV10                                                Earth MOID = 0.0577 AU
Epoch 2011 Feb. 8.0 TT = JDT 2455600.5 MPC
M 7.04427 (2000.0) P Q
n 0.21553668 Peri. 293.07701 -0.05513323 -0.99731123
a 2.7550020 Node 159.90358 +0.95979415 -0.06626323
e 0.6764531 Incl. 8.07690 +0.27523719 +0.03129689
P 4.57 H 24.9 G 0.15 U 9
MPEC 2011 - E02

The 5 - 12 metre wide asteroid 2011 DV10 made a close pass (0.0578 AU), travelling at 13.55 km/second, to the Earth-Moon system on the 7th February, 2011 @ 07:50 UT ±18:41.

See more

The Lunar Distance (LD), the distance between Earth and the Moon, equals 384,401 km, (or 0.00256 AU).


__________________
Page 1 of 1  sorted by
 
Quick Reply

Please log in to post quick replies.



Create your own FREE Forum
Report Abuse
Powered by ActiveBoard